Location: Newark
(12.4436°N, 0.6167°W)
Time: 17:06:12
(UTC+00:00)

Vanguard 1 - Pass Details

Date: 17 December 2019
Orbit: 651 x 3832 km, 34.2° (Epoch: 22 January)

Event Time Altitude Azimuth Distance (km) Brightness Sun altitude
Rises 10:21:13 0° 300° (WNW) 7,078 14.1 47.0°
Reaches altitude 10° 10:26:41 10° 298° (WNW) 5,601 13.7 47.8°
Maximum altitude 10:41:20 61° 222° (SW) 1,926 12.5 49.5°
Drops below altitude 10° 10:49:05 10° 142° (SE) 3,102 13.5 50.4°
Sets 10:51:16 0° 138° (SE) 3,809 13.7 50.6°
